Flag for U.S.A. Weather past 2 weeks in Fall River, Massachusetts, U.S.A.

Now
70 °F

Passing clouds.


Feels Like: 64 °F
Forecast: 69 / 86 °F
Wind: No wind

Location: New Bedford Regional Airport

Current Time: Sep 2, 2014 at 3:30:36 AM

Latest Report: Sep 2, 2014 at 2:53 AM


Visibility: 7 mi

Pressure: 29.90 "Hg

Humidity: 97%

Dew point: 69 °F

Location of Fall RiverLocation

Historic Weather in Fall River — Graph

°F

Fall River temperature yesterday

Maximum temperature yesterday: 84 °F (at 12:53 PM)
Minimum temperature yesterday: 72 °F (at 4:53 AM)
Average temperature yesterday: 77 °F

Past Weeks' High & Low Weather Summary

 TemperatureHumidityPressure
High86 °F (Aug 25, 1:53 PM)100% (Aug 20, 6:53 AM)30.31 "Hg (Aug 20, 6:53 AM)
Low47 °F (Aug 30, 4:53 AM)35% (Aug 28, 2:53 PM)29.78 "Hg (Aug 18, 2:53 PM)
Average68 °F76%30.03 "Hg
* Reported Aug 18 1:53 AM — Sep 2 1:53 AM, Fall River, Weather by CustomWeather, © 2014

Note: Actual official high and low records may vary slightly from our data, if they occured in-between our weather recording intervals... More about our weather records

Advertising

Fall River weather history for previous 24 hours

 ConditionsComfort  
Time TempWeatherWind HumidityBarometerVisibility
1:53 AM
Sep 2
70 °FFog.No wind97%29.92 "Hg6 mi
12:53 AM71 °FClear.3 mph96%29.94 "Hg10 mi
11:53 PM
Sep 1
72 °FClear.5 mph93%29.94 "Hg10 mi
10:53 PM72 °FPassing clouds.6 mph93%29.95 "Hg10 mi
9:53 PM73 °FClear.6 mph90%29.95 "Hg10 mi
8:53 PM74 °FClear.7 mph85%29.94 "Hg10 mi
7:53 PM76 °FSunny.8 mph85%29.93 "Hg10 mi
6:53 PM78 °FSunny.7 mph79%29.91 "Hg10 mi
5:53 PM81 °FSunny.9 mph72%29.90 "Hg10 mi
4:53 PM83 °FSunny.8 mph68%29.91 "Hg10 mi
3:53 PM84 °FSunny.7 mph65%29.92 "Hg10 mi
2:53 PM84 °FSunny.12 mph65%29.93 "Hg10 mi
1:53 PM83 °FPassing clouds.12 mph68%29.94 "Hg10 mi
12:53 PM84 °FPassing clouds.8 mph65%29.94 "Hg10 mi
11:53 AM82 °FPartly sunny.8 mph74%29.96 "Hg10 mi
10:53 AM80 °FPassing clouds.8 mph79%29.98 "Hg10 mi
10:00 AM77 °FLow clouds.6 mph85%29.99 "Hg10 mi
8:53 AM74 °FFog.6 mph94%29.98 "Hg5 mi
7:53 AM73 °FFog.5 mph97%29.99 "Hg2 mi
6:53 AM72 °FFog.7 mph97%29.99 "Hg2 mi
5:53 AM72 °FFog.5 mph97%29.98 "Hg4 mi
4:53 AM72 °FFog.5 mph97%29.97 "Hg6 mi
3:53 AM73 °FFog.6 mph94%29.96 "Hg6 mi
Weather by CustomWeather, © 2014

See weather overviewHow to use our weather pages